This is the latest recevied weather packets stored in our database for station/object W1ERB-13. If no packets are shown the sender has not sent any weather packets the latest 10 day(s).
| Time | Temp. | Humidity | Pressure | Rain* | Wind** | Luminosity | Snow |
|---|---|---|---|---|---|---|---|
| 1778028959 | 17.78° C | 66% | 1009.3 hPa | 0 mm | - | 0 W/m² | - |
| 1778028655 | 17.78° C | 66% | 1009.2 hPa | 0 mm | - | 0 W/m² | - |
| 1778028347 | 17.78° C | 65% | 1009.2 hPa | 0 mm | - | 0 W/m² | - |
| 1778028044 | 17.78° C | 64% | 1009 hPa | 0 mm | - | 0 W/m² | - |
| 1778027740 | 17.78° C | 65% | 1009 hPa | 0 mm | - | 0 W/m² | - |
| 1778027437 | 17.78° C | 64% | 1008.8 hPa | 0 mm | - | 0 W/m² | - |
| 1778027132 | 17.78° C | 64% | 1008.8 hPa | 0 mm | - | 0 W/m² | - |
| 1778026828 | 17.78° C | 64% | 1008.6 hPa | 0 mm | - | 0 W/m² | - |
| 1778026524 | 17.78° C | 63% | 1008.5 hPa | 0 mm | - | 0 W/m² | - |
| 1778026222 | 18.33° C | 63% | 1008.7 hPa | 0 mm | - | 0 W/m² | - |
| 1778025919 | 18.33° C | 64% | 1008.6 hPa | 0 mm | - | 0 W/m² | - |
| 1778025617 | 18.33° C | 63% | 1008.3 hPa | 0 mm | - | 0 W/m² | - |
| 1778025314 | 18.33° C | 63% | 1008.2 hPa | 0 mm | - | 0 W/m² | - |
| 1778025010 | 18.33° C | 63% | 1008.2 hPa | 0 mm | - | 2 W/m² | - |
| 1778024708 | 18.33° C | 64% | 1008.1 hPa | 0 mm | - | 4 W/m² | - |
| 1778024404 | 18.89° C | 63% | 1008.2 hPa | 0 mm | - | 8 W/m² | - |
| 1778024102 | 18.89° C | 63% | 1008.1 hPa | 0 mm | - | 12 W/m² | - |
| 1778023799 | 18.89° C | 62% | 1008 hPa | 0 mm | - | 16 W/m² | - |
| 1778023497 | 18.89° C | 62% | 1007.9 hPa | 0 mm | - | 20 W/m² | - |
| 1778023194 | 19.44° C | 62% | 1008 hPa | 0 mm | - | 26 W/m² | - |
| 1778022891 | 19.44° C | 61% | 1007.9 hPa | 0 mm | - | 30 W/m² | - |
| 1778022590 | 19.44° C | 62% | 1008 hPa | 0 mm | - | 33 W/m² | - |
| 1778022288 | 19.44° C | 61% | 1007.8 hPa | 0 mm | - | 34 W/m² | - |
| 1778021984 | 20° C | 61% | 1007.8 hPa | 0 mm | - | 32 W/m² | - |
| 1778021680 | 20° C | 60% | 1007.7 hPa | 0 mm | - | 34 W/m² | - |
* Rain latest hour (hover to see other rain measurements)
** Current wind speed in m/s (hover to see current wind gust speed)